sat.trackr.live / text

‹ back to catalog

ONEWEB-0322

NORAD 49192 · 2021-083G

PAYLOAD ACTIVE UNKNOWN

§ Identity

Operator
Country
UK
Launch date
2021-09-14
Launch site
TYMSC
Launch vehicle
Mass (kg)
RCS (m²)

Purposes: comms

External: N2YO · Heavens-Above · Gunter

§ Orbital elements

Epoch: 2026-05-24T23:56:15.466272Z

Period
109.63 min
Inclination
87.8937°
Eccentricity
0.0001557
Mean motion
13.13468692 rev/d
Perigee alt
1,208.6 km
Apogee alt
1,211.0 km
Semi-major
7,587.9 km
B*
-5.5872e-4
RAAN
324.8565°
Arg perigee
78.6383°
Mean anomaly
281.4921°
Rev number
22,787

§ Raw data

ONEWEB-03221 49192U 21083G   26144.99740123 -.00000191  00000+0 -55872-3 0  99932 49192  87.8937 324.8565 0001557  78.6383 281.4921 13.13468692227871

JSON: /api/v1/satellites/49192 · /tle

For live sub-satellite position, see the globe view (requires WebGL).

§ Visibility from observer

Set your observer location to see the next 7 days of passes ≥ 10°. The values pass through the URL so the page stays shareable.

No JS? Fill the form by hand. The geolocation button needs JavaScript.